Year,Month,Day,Hour,Minute,Value (Times are PST for temperature in C)
2014,08,08,00,00,18.20
2014,08,08,00,01,18.20
2014,08,08,00,02,18.10
2014,08,08,00,03,18.10
2014,08,08,00,04,18.10
2014,08,08,00,05,18.10
2014,08,08,00,06,18.00
2014,08,08,00,07,18.00
2014,08,08,00,08,17.90
2014,08,08,00,09,17.90
2014,08,08,00,10,17.80
2014,08,08,00,11,17.80
2014,08,08,00,12,17.80
2014,08,08,00,13,17.70
2014,08,08,00,14,17.70
2014,08,08,00,15,17.60
2014,08,08,00,16,17.60
2014,08,08,00,17,17.50
2014,08,08,00,18,17.50
2014,08,08,00,19,17.40
2014,08,08,00,20,17.40
2014,08,08,00,21,17.30
2014,08,08,00,22,17.30
2014,08,08,00,23,17.30
2014,08,08,00,24,17.20
2014,08,08,00,25,17.20
2014,08,08,00,26,17.10
2014,08,08,00,27,17.10
2014,08,08,00,28,17.00
2014,08,08,00,29,17.00
2014,08,08,00,30,17.00
2014,08,08,00,31,16.90
2014,08,08,00,32,16.90
2014,08,08,00,33,16.90
2014,08,08,00,34,16.80
2014,08,08,00,35,16.80
2014,08,08,00,36,16.80
2014,08,08,00,37,16.70
2014,08,08,00,38,16.70
2014,08,08,00,39,16.60
2014,08,08,00,40,16.60
2014,08,08,00,41,16.60
2014,08,08,00,42,16.60
2014,08,08,00,43,16.50
2014,08,08,00,44,16.50
2014,08,08,00,45,16.40
2014,08,08,00,46,16.40
2014,08,08,00,47,16.40
2014,08,08,00,48,16.40
2014,08,08,00,49,16.30
2014,08,08,00,50,16.30
2014,08,08,00,51,16.30
2014,08,08,00,52,16.20
2014,08,08,00,53,16.10
2014,08,08,00,54,16.10
2014,08,08,00,55,16.10
2014,08,08,00,56,16.10
2014,08,08,00,57,16.20
2014,08,08,00,58,16.20
2014,08,08,00,59,16.20
2014,08,08,01,00,16.20
2014,08,08,01,01,16.20
2014,08,08,01,02,16.20
2014,08,08,01,03,16.20
2014,08,08,01,04,16.20
2014,08,08,01,05,16.20
2014,08,08,01,06,16.20
2014,08,08,01,07,16.10
2014,08,08,01,08,16.10
2014,08,08,01,09,16.10
2014,08,08,01,10,16.00
2014,08,08,01,11,15.90
2014,08,08,01,12,15.90
2014,08,08,01,13,15.90
2014,08,08,01,14,15.80
2014,08,08,01,15,15.80
2014,08,08,01,16,15.80
2014,08,08,01,17,15.70
2014,08,08,01,18,15.70
2014,08,08,01,19,15.70
2014,08,08,01,20,15.70
2014,08,08,01,21,15.70
2014,08,08,01,22,15.60
2014,08,08,01,23,15.60
2014,08,08,01,24,15.60
2014,08,08,01,25,15.60
2014,08,08,01,26,15.60
2014,08,08,01,27,15.50
2014,08,08,01,28,15.50
2014,08,08,01,29,15.40
2014,08,08,01,30,15.40
2014,08,08,01,31,15.30
2014,08,08,01,32,15.30
2014,08,08,01,33,15.30
2014,08,08,01,34,15.30
2014,08,08,01,35,15.30
2014,08,08,01,36,15.30
2014,08,08,01,37,15.30
2014,08,08,01,38,15.40
2014,08,08,01,39,15.40
2014,08,08,01,40,15.40
2014,08,08,01,41,15.50
2014,08,08,01,42,15.60
2014,08,08,01,43,15.60
2014,08,08,01,44,15.70
2014,08,08,01,45,15.70
2014,08,08,01,46,15.80
2014,08,08,01,47,15.90
2014,08,08,01,48,16.00
2014,08,08,01,49,16.10
2014,08,08,01,50,16.10
2014,08,08,01,51,16.20
2014,08,08,01,52,16.30
2014,08,08,01,53,16.30
2014,08,08,01,54,16.40
2014,08,08,01,55,16.50
2014,08,08,01,56,16.50
2014,08,08,01,57,16.50
2014,08,08,01,58,16.50
2014,08,08,01,59,16.50
2014,08,08,02,00,16.60
2014,08,08,02,01,16.60
2014,08,08,02,02,16.60
2014,08,08,02,03,16.60
2014,08,08,02,04,16.60
2014,08,08,02,05,16.70
2014,08,08,02,06,16.70
2014,08,08,02,07,16.70
2014,08,08,02,08,16.70
2014,08,08,02,09,16.70
2014,08,08,02,10,16.80
2014,08,08,02,11,16.80
2014,08,08,02,12,16.80
2014,08,08,02,13,16.80
2014,08,08,02,14,16.80
2014,08,08,02,15,16.90
2014,08,08,02,16,16.90
2014,08,08,02,17,16.90
2014,08,08,02,18,17.00
2014,08,08,02,19,17.00
2014,08,08,02,20,17.00
2014,08,08,02,21,17.00
2014,08,08,02,22,17.00
2014,08,08,02,23,17.10
2014,08,08,02,24,17.10
2014,08,08,02,25,17.10
2014,08,08,02,26,17.10
2014,08,08,02,27,17.10
2014,08,08,02,28,17.10
2014,08,08,02,29,17.20
2014,08,08,02,30,17.20
2014,08,08,02,31,17.20
2014,08,08,02,32,17.20
2014,08,08,02,33,17.20
2014,08,08,02,34,17.20
2014,08,08,02,35,17.20
2014,08,08,02,36,17.20
2014,08,08,02,37,17.20
2014,08,08,02,38,17.20
2014,08,08,02,39,17.20
2014,08,08,02,40,17.20
2014,08,08,02,41,17.10
2014,08,08,02,42,17.10
2014,08,08,02,43,17.10
2014,08,08,02,44,17.10
2014,08,08,02,45,17.10
2014,08,08,02,46,17.00
2014,08,08,02,47,17.00
2014,08,08,02,48,17.00
2014,08,08,02,49,17.00
2014,08,08,02,50,17.00
2014,08,08,02,51,16.90
2014,08,08,02,52,16.90
2014,08,08,02,53,16.90
2014,08,08,02,54,16.90
2014,08,08,02,55,16.90
2014,08,08,02,56,16.80
2014,08,08,02,57,16.80
2014,08,08,02,58,16.80
2014,08,08,02,59,16.70
2014,08,08,03,00,16.70
2014,08,08,03,01,16.70
2014,08,08,03,02,16.70
2014,08,08,03,03,16.70
2014,08,08,03,04,16.70
2014,08,08,03,05,16.70
2014,08,08,03,06,16.70
2014,08,08,03,07,16.60
2014,08,08,03,08,16.60
2014,08,08,03,09,16.60
2014,08,08,03,10,16.60
2014,08,08,03,11,16.60
2014,08,08,03,12,16.60
2014,08,08,03,13,16.60
2014,08,08,03,14,16.60
2014,08,08,03,15,16.50
2014,08,08,03,16,16.50
2014,08,08,03,17,16.40
2014,08,08,03,18,16.40
2014,08,08,03,19,16.30
2014,08,08,03,20,16.30
2014,08,08,03,21,16.20
2014,08,08,03,22,16.20
2014,08,08,03,23,16.10
2014,08,08,03,24,16.00
2014,08,08,03,25,16.00
2014,08,08,03,26,15.90
2014,08,08,03,27,15.90
2014,08,08,03,28,15.90
2014,08,08,03,29,15.90
2014,08,08,03,30,15.90
2014,08,08,03,31,15.90
2014,08,08,03,32,15.90
2014,08,08,03,33,15.90
2014,08,08,03,34,15.90
2014,08,08,03,35,15.90
2014,08,08,03,36,15.90
2014,08,08,03,37,15.80
2014,08,08,03,38,15.80
2014,08,08,03,39,15.80
2014,08,08,03,40,15.80
2014,08,08,03,41,15.80
2014,08,08,03,42,15.80
2014,08,08,03,43,15.80
2014,08,08,03,44,15.70
2014,08,08,03,45,15.70
2014,08,08,03,46,15.70
2014,08,08,03,47,15.60
2014,08,08,03,48,15.70
2014,08,08,03,49,15.70
2014,08,08,03,50,15.70
2014,08,08,03,51,15.70
2014,08,08,03,52,15.70
2014,08,08,03,53,15.70
2014,08,08,03,54,15.70
2014,08,08,03,55,15.70
2014,08,08,03,56,15.60
2014,08,08,03,57,15.60
2014,08,08,03,58,15.60
2014,08,08,03,59,15.50
2014,08,08,04,00,15.50
2014,08,08,04,01,15.50
2014,08,08,04,02,15.40
2014,08,08,04,03,15.40
2014,08,08,04,04,15.30
2014,08,08,04,05,15.30
2014,08,08,04,06,15.30
2014,08,08,04,07,15.20
2014,08,08,04,08,15.20
2014,08,08,04,09,15.20
2014,08,08,04,10,15.20
2014,08,08,04,11,15.20
2014,08,08,04,12,15.20
2014,08,08,04,13,15.30
2014,08,08,04,14,15.30
2014,08,08,04,15,15.30
2014,08,08,04,16,15.30
2014,08,08,04,17,15.30
2014,08,08,04,18,15.30
2014,08,08,04,19,15.30
2014,08,08,04,20,15.30
2014,08,08,04,21,15.30
2014,08,08,04,22,15.30
2014,08,08,04,23,15.30
2014,08,08,04,24,15.20
2014,08,08,04,25,15.20
2014,08,08,04,26,15.20
2014,08,08,04,27,15.20
2014,08,08,04,28,15.10
2014,08,08,04,29,15.10
2014,08,08,04,30,15.00
2014,08,08,04,31,15.00
2014,08,08,04,32,14.90
2014,08,08,04,33,14.90
2014,08,08,04,34,14.80
2014,08,08,04,35,14.80
2014,08,08,04,36,14.70
2014,08,08,04,37,14.70
2014,08,08,04,38,14.60
2014,08,08,04,39,14.60
2014,08,08,04,40,14.60
2014,08,08,04,41,14.60
2014,08,08,04,42,14.60
2014,08,08,04,43,14.60
2014,08,08,04,44,14.60
2014,08,08,04,45,14.60
2014,08,08,04,46,14.70
2014,08,08,04,47,14.80
2014,08,08,04,48,14.80
2014,08,08,04,49,14.80
2014,08,08,04,50,14.80
2014,08,08,04,51,14.80
2014,08,08,04,52,14.80
2014,08,08,04,53,14.70
2014,08,08,04,54,14.70
2014,08,08,04,55,14.60
2014,08,08,04,56,14.60
2014,08,08,04,57,14.60
2014,08,08,04,58,14.60
2014,08,08,04,59,14.60
2014,08,08,05,00,14.60
2014,08,08,05,01,14.60
2014,08,08,05,02,14.50
2014,08,08,05,03,14.50
2014,08,08,05,04,14.40
2014,08,08,05,05,14.40
2014,08,08,05,06,14.30
2014,08,08,05,07,14.30
2014,08,08,05,08,14.30
2014,08,08,05,09,14.30
2014,08,08,05,10,14.20
2014,08,08,05,11,14.20
2014,08,08,05,12,14.10
2014,08,08,05,13,14.10
2014,08,08,05,14,14.10
2014,08,08,05,15,14.10
2014,08,08,05,16,14.10
2014,08,08,05,17,14.10
2014,08,08,05,18,14.10
2014,08,08,05,19,14.10
2014,08,08,05,20,14.20
2014,08,08,05,21,14.20
2014,08,08,05,22,14.30
2014,08,08,05,23,14.30
2014,08,08,05,24,14.30
2014,08,08,05,25,14.30
2014,08,08,05,26,14.30
2014,08,08,05,27,14.30
2014,08,08,05,28,14.30
2014,08,08,05,29,14.20
2014,08,08,05,30,14.20
2014,08,08,05,31,14.20
2014,08,08,05,32,14.10
2014,08,08,05,33,14.10
2014,08,08,05,34,14.00
2014,08,08,05,35,14.00
2014,08,08,05,36,13.90
2014,08,08,05,37,13.80
2014,08,08,05,38,13.80
2014,08,08,05,39,13.70
2014,08,08,05,40,13.60
2014,08,08,05,41,13.50
2014,08,08,05,42,13.50
2014,08,08,05,43,13.40
2014,08,08,05,44,13.30
2014,08,08,05,45,13.30
2014,08,08,05,46,13.20
2014,08,08,05,47,13.20
2014,08,08,05,48,13.20
2014,08,08,05,49,13.20
2014,08,08,05,50,13.20
2014,08,08,05,51,13.20
2014,08,08,05,52,13.20
2014,08,08,05,53,13.20
2014,08,08,05,54,13.20
2014,08,08,05,55,13.20
2014,08,08,05,56,13.20
2014,08,08,05,57,13.20
2014,08,08,05,58,13.20
2014,08,08,05,59,13.30
2014,08,08,06,00,13.30
2014,08,08,06,01,13.30
2014,08,08,06,02,13.40
2014,08,08,06,03,13.40
2014,08,08,06,04,13.40
2014,08,08,06,05,13.40
2014,08,08,06,06,13.40
2014,08,08,06,07,13.40
2014,08,08,06,08,13.40
2014,08,08,06,09,13.40
2014,08,08,06,10,13.30
2014,08,08,06,11,13.30
2014,08,08,06,12,13.30
2014,08,08,06,13,13.30
2014,08,08,06,14,13.30
2014,08,08,06,15,13.40
2014,08,08,06,16,13.40
2014,08,08,06,17,13.40
2014,08,08,06,18,13.50
2014,08,08,06,19,13.50
2014,08,08,06,20,13.60
2014,08,08,06,21,13.70
2014,08,08,06,22,13.70
2014,08,08,06,23,13.70
2014,08,08,06,24,13.80
2014,08,08,06,25,13.80
2014,08,08,06,26,14.00
2014,08,08,06,27,14.10
2014,08,08,06,28,14.20
2014,08,08,06,29,14.30
2014,08,08,06,30,14.40
2014,08,08,06,31,14.50
2014,08,08,06,32,14.60
2014,08,08,06,33,14.70
2014,08,08,06,34,14.80
2014,08,08,06,35,14.90
2014,08,08,06,36,15.00
2014,08,08,06,37,15.00
2014,08,08,06,38,15.10
2014,08,08,06,39,15.10
2014,08,08,06,40,15.20
2014,08,08,06,41,15.10
2014,08,08,06,42,15.10
2014,08,08,06,43,15.10
2014,08,08,06,44,15.10
2014,08,08,06,45,15.00
2014,08,08,06,46,15.00
2014,08,08,06,47,15.10
2014,08,08,06,48,15.10
2014,08,08,06,49,15.10
2014,08,08,06,50,15.10
2014,08,08,06,51,15.20
2014,08,08,06,52,15.20
2014,08,08,06,53,15.30
2014,08,08,06,54,15.40
2014,08,08,06,55,15.50
2014,08,08,06,56,15.50
2014,08,08,06,57,15.60
2014,08,08,06,58,15.70
2014,08,08,06,59,15.70
2014,08,08,07,00,15.80
2014,08,08,07,01,15.80
2014,08,08,07,02,15.90
2014,08,08,07,03,16.00
2014,08,08,07,04,16.00
2014,08,08,07,05,16.10
2014,08,08,07,06,16.10
2014,08,08,07,07,16.20
2014,08,08,07,08,16.20
2014,08,08,07,09,16.30
2014,08,08,07,10,16.30
2014,08,08,07,11,16.40
2014,08,08,07,12,16.40
2014,08,08,07,13,16.50
2014,08,08,07,14,16.50
2014,08,08,07,15,16.60
2014,08,08,07,16,16.60
2014,08,08,07,17,16.60
2014,08,08,07,18,16.70
2014,08,08,07,19,16.70
2014,08,08,07,20,16.70
2014,08,08,07,21,16.80
2014,08,08,07,22,16.80
2014,08,08,07,23,16.80
2014,08,08,07,24,16.90
2014,08,08,07,25,16.90
2014,08,08,07,26,16.90
2014,08,08,07,27,17.00
2014,08,08,07,28,17.00
2014,08,08,07,29,17.00
2014,08,08,07,30,17.10
2014,08,08,07,31,17.10
2014,08,08,07,32,17.10
2014,08,08,07,33,17.10
2014,08,08,07,34,17.10
2014,08,08,07,35,17.20
2014,08,08,07,36,17.20
2014,08,08,07,37,17.20
2014,08,08,07,38,17.30
2014,08,08,07,39,17.30
2014,08,08,07,40,17.30
2014,08,08,07,41,17.30
2014,08,08,07,42,17.30
2014,08,08,07,43,17.30
2014,08,08,07,44,17.30
2014,08,08,07,45,17.40
2014,08,08,07,46,17.40
2014,08,08,07,47,17.40
2014,08,08,07,48,17.40
2014,08,08,07,49,17.50
2014,08,08,07,50,17.50
2014,08,08,07,51,17.50
2014,08,08,07,52,17.50
2014,08,08,07,53,17.60
2014,08,08,07,54,17.60
2014,08,08,07,55,17.60
2014,08,08,07,56,17.60
2014,08,08,07,57,17.60
2014,08,08,07,58,17.70
2014,08,08,07,59,17.70
2014,08,08,08,00,17.70
2014,08,08,08,01,17.70
2014,08,08,08,02,17.70
2014,08,08,08,03,17.80
2014,08,08,08,04,17.80
2014,08,08,08,05,17.80
2014,08,08,08,06,17.90
2014,08,08,08,07,17.90
2014,08,08,08,08,17.90
2014,08,08,08,09,17.90
2014,08,08,08,10,17.80
2014,08,08,08,11,17.80
2014,08,08,08,12,17.90
2014,08,08,08,13,17.90
2014,08,08,08,14,17.90
2014,08,08,08,15,18.00
2014,08,08,08,16,18.00
2014,08,08,08,17,18.10
2014,08,08,08,18,18.10
2014,08,08,08,19,18.10
2014,08,08,08,20,18.10
2014,08,08,08,21,18.10
2014,08,08,08,22,18.10
2014,08,08,08,23,18.10
2014,08,08,08,24,18.00
2014,08,08,08,25,18.00
2014,08,08,08,26,18.00
2014,08,08,08,27,18.00
2014,08,08,08,28,18.00
2014,08,08,08,29,18.10
2014,08,08,08,30,18.10
2014,08,08,08,31,18.20
2014,08,08,08,32,18.20
2014,08,08,08,33,18.20
2014,08,08,08,34,18.20
2014,08,08,08,35,18.20
2014,08,08,08,36,18.20
2014,08,08,08,37,18.20
2014,08,08,08,38,18.20
2014,08,08,08,39,18.20
2014,08,08,08,40,18.20
2014,08,08,08,41,18.20
2014,08,08,08,42,18.30
2014,08,08,08,43,18.30
2014,08,08,08,44,18.30
2014,08,08,08,45,18.30
2014,08,08,08,46,18.30
2014,08,08,08,47,18.20
2014,08,08,08,48,18.20
2014,08,08,08,49,18.10
2014,08,08,08,50,18.10
2014,08,08,08,51,18.10
2014,08,08,08,52,18.00
2014,08,08,08,53,18.00
2014,08,08,08,54,18.00
2014,08,08,08,55,18.00
2014,08,08,08,56,17.90
2014,08,08,08,57,17.90
2014,08,08,08,58,17.90
2014,08,08,08,59,17.90
2014,08,08,09,00,17.90
2014,08,08,09,01,17.90
2014,08,08,09,02,17.90
2014,08,08,09,03,17.90
2014,08,08,09,04,17.90
2014,08,08,09,05,17.90
2014,08,08,09,06,17.90
2014,08,08,09,07,17.90
2014,08,08,09,08,17.90
2014,08,08,09,09,17.90
2014,08,08,09,10,17.90
2014,08,08,09,11,17.90
2014,08,08,09,12,17.90
2014,08,08,09,13,18.00
2014,08,08,09,14,18.10
2014,08,08,09,15,18.10
2014,08,08,09,16,18.10
2014,08,08,09,17,18.10
2014,08,08,09,18,18.10
2014,08,08,09,19,18.10
2014,08,08,09,20,18.10
2014,08,08,09,21,18.10
2014,08,08,09,22,18.10
2014,08,08,09,23,18.20
2014,08,08,09,24,18.20
2014,08,08,09,25,18.10
2014,08,08,09,26,18.20
2014,08,08,09,27,18.20
2014,08,08,09,28,18.20
2014,08,08,09,29,18.20
2014,08,08,09,30,18.20
2014,08,08,09,31,18.30
2014,08,08,09,32,18.30
2014,08,08,09,33,18.30
2014,08,08,09,34,18.30
2014,08,08,09,35,18.30
2014,08,08,09,36,18.40
2014,08,08,09,37,18.40
2014,08,08,09,38,18.40
2014,08,08,09,39,18.40
2014,08,08,09,40,18.40
2014,08,08,09,41,18.40
2014,08,08,09,42,18.40
2014,08,08,09,43,18.40
2014,08,08,09,44,18.40
2014,08,08,09,45,18.40
2014,08,08,09,46,18.40
2014,08,08,09,47,18.40
2014,08,08,09,48,18.40
2014,08,08,09,49,18.40
2014,08,08,09,50,18.40
2014,08,08,09,51,18.40
2014,08,08,09,52,18.40
2014,08,08,09,53,18.50
2014,08,08,09,54,18.50
2014,08,08,09,55,18.60
2014,08,08,09,56,18.60
2014,08,08,09,57,18.60
2014,08,08,09,58,18.60
2014,08,08,09,59,18.60
2014,08,08,10,00,18.50
2014,08,08,10,01,18.50
2014,08,08,10,02,18.50
2014,08,08,10,03,18.60
2014,08,08,10,04,18.70
2014,08,08,10,05,18.70
2014,08,08,10,06,18.70
2014,08,08,10,07,18.80
2014,08,08,10,08,18.80
2014,08,08,10,09,18.80
2014,08,08,10,10,18.90
2014,08,08,10,11,19.00
2014,08,08,10,12,19.00
2014,08,08,10,13,19.10
2014,08,08,10,14,19.10
2014,08,08,10,15,19.10
2014,08,08,10,16,19.20
2014,08,08,10,17,19.20
2014,08,08,10,18,19.20
2014,08,08,10,19,19.20
2014,08,08,10,20,19.20
2014,08,08,10,21,19.20
2014,08,08,10,22,19.20
2014,08,08,10,23,19.20
2014,08,08,10,24,19.20
2014,08,08,10,25,19.20
2014,08,08,10,26,19.20
2014,08,08,10,27,19.20
2014,08,08,10,28,19.20
2014,08,08,10,29,19.20
2014,08,08,10,30,19.20
2014,08,08,10,31,19.20
2014,08,08,10,32,19.20
2014,08,08,10,33,19.10
2014,08,08,10,34,19.10
2014,08,08,10,35,19.10
2014,08,08,10,36,19.10
2014,08,08,10,37,19.20
2014,08,08,10,38,19.30
2014,08,08,10,39,19.30
2014,08,08,10,40,19.30
2014,08,08,10,41,19.30
2014,08,08,10,42,19.40
2014,08,08,10,43,19.40
2014,08,08,10,44,19.50
2014,08,08,10,45,19.50
2014,08,08,10,46,19.50
2014,08,08,10,47,19.40
2014,08,08,10,48,19.30
2014,08,08,10,49,19.30
2014,08,08,10,50,19.30
2014,08,08,10,51,19.30
2014,08,08,10,52,19.40
2014,08,08,10,53,19.40
2014,08,08,10,54,19.40
2014,08,08,10,55,19.40
2014,08,08,10,56,19.40
2014,08,08,10,57,19.40
2014,08,08,10,58,19.40
2014,08,08,10,59,19.40
2014,08,08,11,00,19.50
2014,08,08,11,01,19.50
2014,08,08,11,02,19.50
2014,08,08,11,03,19.60
2014,08,08,11,04,19.60
2014,08,08,11,05,19.60
2014,08,08,11,06,19.60
2014,08,08,11,07,19.60
2014,08,08,11,08,19.60
2014,08,08,11,09,19.60
2014,08,08,11,10,19.60
2014,08,08,11,11,19.60
2014,08,08,11,12,19.70
2014,08,08,11,13,19.70
2014,08,08,11,14,19.80
2014,08,08,11,15,19.80
2014,08,08,11,16,19.80
2014,08,08,11,17,19.80
2014,08,08,11,18,19.80
2014,08,08,11,19,19.80
2014,08,08,11,20,19.70
2014,08,08,11,21,19.70
2014,08,08,11,22,19.80
2014,08,08,11,23,19.90
2014,08,08,11,24,20.00
2014,08,08,11,25,20.10
2014,08,08,11,26,20.20
2014,08,08,11,27,20.20
2014,08,08,11,28,20.10
2014,08,08,11,29,20.20
2014,08,08,11,30,20.20
2014,08,08,11,31,20.20
2014,08,08,11,32,20.20
2014,08,08,11,33,20.30
2014,08,08,11,34,20.30
2014,08,08,11,35,20.30
2014,08,08,11,36,20.20
2014,08,08,11,37,20.20
2014,08,08,11,38,20.20
2014,08,08,11,39,20.20
2014,08,08,11,40,20.20
2014,08,08,11,41,20.20
2014,08,08,11,42,20.30
2014,08,08,11,43,20.30
2014,08,08,11,44,20.40
2014,08,08,11,45,20.40
2014,08,08,11,46,20.40
2014,08,08,11,47,20.30
2014,08,08,11,48,20.30
2014,08,08,11,49,20.30
2014,08,08,11,50,20.20
2014,08,08,11,51,20.20
2014,08,08,11,52,20.20
2014,08,08,11,53,20.20
2014,08,08,11,54,20.30
2014,08,08,11,55,20.50
2014,08,08,11,56,20.60
2014,08,08,11,57,20.60
2014,08,08,11,58,20.60
2014,08,08,11,59,20.60
2014,08,08,12,00,20.60
2014,08,08,12,01,20.60
2014,08,08,12,02,20.60
2014,08,08,12,03,20.50
2014,08,08,12,04,20.40
2014,08,08,12,05,20.40
2014,08,08,12,06,20.30
2014,08,08,12,07,20.30
2014,08,08,12,08,20.20
2014,08,08,12,09,20.20
2014,08,08,12,10,20.10
2014,08,08,12,11,20.00
2014,08,08,12,12,20.00
2014,08,08,12,13,20.00
2014,08,08,12,14,20.10
2014,08,08,12,15,20.20
2014,08,08,12,16,20.30
2014,08,08,12,17,20.40
2014,08,08,12,18,20.50
2014,08,08,12,19,20.60
2014,08,08,12,20,20.70
2014,08,08,12,21,20.70
2014,08,08,12,22,20.70
2014,08,08,12,23,20.70
2014,08,08,12,24,20.60
2014,08,08,12,25,20.60
2014,08,08,12,26,20.60
2014,08,08,12,27,20.70
2014,08,08,12,28,20.80
2014,08,08,12,29,20.80
2014,08,08,12,30,20.70
2014,08,08,12,31,20.60
2014,08,08,12,32,20.60
2014,08,08,12,33,20.70
2014,08,08,12,34,20.80
2014,08,08,12,35,20.90
2014,08,08,12,36,20.90
2014,08,08,12,37,21.00
2014,08,08,12,38,21.00
2014,08,08,12,39,20.90
2014,08,08,12,40,20.90
2014,08,08,12,41,20.90
2014,08,08,12,42,20.80
2014,08,08,12,43,20.80
2014,08,08,12,44,20.80
2014,08,08,12,45,20.70
2014,08,08,12,46,20.70
2014,08,08,12,47,20.70
2014,08,08,12,48,20.70
2014,08,08,12,49,20.80
2014,08,08,12,50,20.90
2014,08,08,12,51,21.00
2014,08,08,12,52,21.10
2014,08,08,12,53,21.20
2014,08,08,12,54,21.10
2014,08,08,12,55,21.10
2014,08,08,12,56,21.10
2014,08,08,12,57,21.10
2014,08,08,12,58,21.20
2014,08,08,12,59,21.30
2014,08,08,13,00,21.50
2014,08,08,13,01,21.60
2014,08,08,13,02,21.70
2014,08,08,13,03,21.60
2014,08,08,13,04,21.50
2014,08,08,13,05,21.40
2014,08,08,13,06,21.30
2014,08,08,13,07,21.30
2014,08,08,13,08,21.40
2014,08,08,13,09,21.40
2014,08,08,13,10,21.30
2014,08,08,13,11,21.40
2014,08,08,13,12,21.40
2014,08,08,13,13,21.50
2014,08,08,13,14,21.50
2014,08,08,13,15,21.60
2014,08,08,13,16,21.60
2014,08,08,13,17,21.60
2014,08,08,13,18,21.60
2014,08,08,13,19,21.70
2014,08,08,13,20,21.70
2014,08,08,13,21,21.70
2014,08,08,13,22,21.80
2014,08,08,13,23,21.80
2014,08,08,13,24,21.90
2014,08,08,13,25,22.00
2014,08,08,13,26,22.00
2014,08,08,13,27,22.00
2014,08,08,13,28,21.90
2014,08,08,13,29,21.90
2014,08,08,13,30,21.90
2014,08,08,13,31,21.80
2014,08,08,13,32,21.80
2014,08,08,13,33,21.80
2014,08,08,13,34,21.80
2014,08,08,13,35,21.80
2014,08,08,13,36,21.80
2014,08,08,13,37,21.80
2014,08,08,13,38,21.80
2014,08,08,13,39,21.80
2014,08,08,13,40,21.90
2014,08,08,13,41,21.90
2014,08,08,13,42,22.00
2014,08,08,13,43,22.10
2014,08,08,13,44,22.10
2014,08,08,13,45,22.20
2014,08,08,13,46,22.20
2014,08,08,13,47,22.30
2014,08,08,13,48,22.30
2014,08,08,13,49,22.20
2014,08,08,13,50,22.20
2014,08,08,13,51,22.30
2014,08,08,13,52,22.40
2014,08,08,13,53,22.50
2014,08,08,13,54,22.60
2014,08,08,13,55,22.60
2014,08,08,13,56,22.60
2014,08,08,13,57,22.60
2014,08,08,13,58,22.60
2014,08,08,13,59,22.60
2014,08,08,14,00,22.60
2014,08,08,14,01,22.50
2014,08,08,14,02,22.50
2014,08,08,14,03,22.50
2014,08,08,14,04,22.50
2014,08,08,14,05,22.50
2014,08,08,14,06,22.50
2014,08,08,14,07,22.60
2014,08,08,14,08,22.70
2014,08,08,14,09,22.90
2014,08,08,14,10,23.10
2014,08,08,14,11,23.30
2014,08,08,14,12,23.40
2014,08,08,14,13,23.50
2014,08,08,14,14,23.60
2014,08,08,14,15,23.60
2014,08,08,14,16,23.40
2014,08,08,14,17,23.30
2014,08,08,14,18,23.20
2014,08,08,14,19,23.10
2014,08,08,14,20,23.00
2014,08,08,14,21,22.90
2014,08,08,14,22,22.80
2014,08,08,14,23,22.70
2014,08,08,14,24,22.60
2014,08,08,14,25,22.50
2014,08,08,14,26,22.40
2014,08,08,14,27,22.30
2014,08,08,14,28,22.30
2014,08,08,14,29,22.30
2014,08,08,14,30,22.20
2014,08,08,14,31,22.20
2014,08,08,14,32,22.20
2014,08,08,14,33,22.40
2014,08,08,14,34,22.50
2014,08,08,14,35,22.60
2014,08,08,14,36,22.60
2014,08,08,14,37,22.70
2014,08,08,14,38,22.70
2014,08,08,14,39,22.70
2014,08,08,14,40,22.60
2014,08,08,14,41,22.60
2014,08,08,14,42,22.60
2014,08,08,14,43,22.60
2014,08,08,14,44,22.60
2014,08,08,14,45,22.60
2014,08,08,14,46,22.60
2014,08,08,14,47,22.60
2014,08,08,14,48,22.60
2014,08,08,14,49,22.70
2014,08,08,14,50,22.80
2014,08,08,14,51,23.00
2014,08,08,14,52,23.20
2014,08,08,14,53,23.30
2014,08,08,14,54,23.30
2014,08,08,14,55,23.20
2014,08,08,14,56,23.10
2014,08,08,14,57,22.90
2014,08,08,14,58,22.80
2014,08,08,14,59,22.70
2014,08,08,15,00,22.50
2014,08,08,15,01,22.40
2014,08,08,15,02,22.30
2014,08,08,15,03,22.20
2014,08,08,15,04,22.00
2014,08,08,15,05,21.90
2014,08,08,15,06,21.90
2014,08,08,15,07,21.90
2014,08,08,15,08,21.90
2014,08,08,15,09,21.90
2014,08,08,15,10,21.90
2014,08,08,15,11,22.10
2014,08,08,15,12,22.20
2014,08,08,15,13,22.20
2014,08,08,15,14,22.30
2014,08,08,15,15,22.30
2014,08,08,15,16,22.20
2014,08,08,15,17,22.00
2014,08,08,15,18,21.80
2014,08,08,15,19,21.80
2014,08,08,15,20,21.70
2014,08,08,15,21,21.70
2014,08,08,15,22,21.70
2014,08,08,15,23,21.80
2014,08,08,15,24,21.80
2014,08,08,15,25,21.80
2014,08,08,15,26,21.90
2014,08,08,15,27,21.90
2014,08,08,15,28,22.00
2014,08,08,15,29,22.00
2014,08,08,15,30,22.00
2014,08,08,15,31,22.00
2014,08,08,15,32,21.90
2014,08,08,15,33,21.90
2014,08,08,15,34,22.00
2014,08,08,15,35,22.20
2014,08,08,15,36,22.30
2014,08,08,15,37,22.30
2014,08,08,15,38,22.20
2014,08,08,15,39,22.20
2014,08,08,15,40,22.10
2014,08,08,15,41,22.10
2014,08,08,15,42,22.00
2014,08,08,15,43,22.00
2014,08,08,15,44,22.00
2014,08,08,15,45,22.10
2014,08,08,15,46,22.20
2014,08,08,15,47,22.10
2014,08,08,15,48,22.10
2014,08,08,15,49,22.10
2014,08,08,15,50,22.10
2014,08,08,15,51,22.10
2014,08,08,15,52,22.00
2014,08,08,15,53,22.00
2014,08,08,15,54,22.10
2014,08,08,15,55,22.10
2014,08,08,15,56,22.20
2014,08,08,15,57,22.30
2014,08,08,15,58,22.50
2014,08,08,15,59,22.50
2014,08,08,16,00,22.60
2014,08,08,16,01,22.50
2014,08,08,16,02,22.50
2014,08,08,16,03,22.50
2014,08,08,16,04,22.50
2014,08,08,16,05,22.50
2014,08,08,16,06,22.40
2014,08,08,16,07,22.30
2014,08,08,16,08,22.30
2014,08,08,16,09,22.30
2014,08,08,16,10,22.40
2014,08,08,16,11,22.50
2014,08,08,16,12,22.60
2014,08,08,16,13,22.50
2014,08,08,16,14,22.40
2014,08,08,16,15,22.40
2014,08,08,16,16,22.40
2014,08,08,16,17,22.50
2014,08,08,16,18,22.50
2014,08,08,16,19,22.60
2014,08,08,16,20,22.70
2014,08,08,16,21,22.80
2014,08,08,16,22,22.90
2014,08,08,16,23,23.00
2014,08,08,16,24,23.00
2014,08,08,16,25,23.10
2014,08,08,16,26,23.10
2014,08,08,16,27,23.20
2014,08,08,16,28,23.40
2014,08,08,16,29,23.50
2014,08,08,16,30,23.40
2014,08,08,16,31,23.40
2014,08,08,16,32,23.20
2014,08,08,16,33,23.10
2014,08,08,16,34,23.00
2014,08,08,16,35,22.90
2014,08,08,16,36,22.80
2014,08,08,16,37,22.80
2014,08,08,16,38,22.90
2014,08,08,16,39,23.00
2014,08,08,16,40,23.10
2014,08,08,16,41,23.20
2014,08,08,16,42,23.20
2014,08,08,16,43,23.30
2014,08,08,16,44,23.30
2014,08,08,16,45,23.40
2014,08,08,16,46,23.50
2014,08,08,16,47,23.50
2014,08,08,16,48,23.50
2014,08,08,16,49,23.40
2014,08,08,16,50,23.30
2014,08,08,16,51,23.20
2014,08,08,16,52,23.20
2014,08,08,16,53,23.10
2014,08,08,16,54,23.10
2014,08,08,16,55,23.20
2014,08,08,16,56,23.20
2014,08,08,16,57,23.20
2014,08,08,16,58,23.30
2014,08,08,16,59,23.30
2014,08,08,17,00,23.30
2014,08,08,17,01,23.30
2014,08,08,17,02,23.40
2014,08,08,17,03,23.50
2014,08,08,17,04,23.60
2014,08,08,17,05,23.60
2014,08,08,17,06,23.50
2014,08,08,17,07,23.60
2014,08,08,17,08,23.60
2014,08,08,17,09,23.60
2014,08,08,17,10,23.70
2014,08,08,17,11,23.70
2014,08,08,17,12,23.60
2014,08,08,17,13,23.50
2014,08,08,17,14,23.40
2014,08,08,17,15,23.30
2014,08,08,17,16,23.30
2014,08,08,17,17,23.30
2014,08,08,17,18,23.30
2014,08,08,17,19,23.30